Waarnemingen

Advertentie
Mijn weer
Cap Bear, Frankrijk (7749): temperatuur & dauwpunt: 18.08.2019 00:00:00 - 24.08.2019 00:00:00 (CEST)Cap Bear, Frankrijk (7749): windsnelheid & windstoten: 18.08.2019 00:00:00 - 24.08.2019 00:00:00 (CEST)Cap Bear, Frankrijk (7749): windrichting: 18.08.2019 00:00:00 - 24.08.2019 00:00:00 (CEST)Cap Bear, Frankrijk (7749): luchtdruk: 18.08.2019 00:00:00 - 24.08.2019 00:00:00 (CEST)Cap Bear, Frankrijk (7749): zicht: 18.08.2019 00:00:00 - 24.08.2019 00:00:00 (CEST)Cap Bear, Frankrijk (7749): neerslag: 18.08.2019 00:00:00 - 24.08.2019 00:00:00 (CEST)
Datum & Tijd tt [°C] td [°C] ff [km/u] ff [kn] fx [km/u] fx [kn] dd ppp [hPa] vv [km] rr [mm]
24.08.2019 00:00:00 23,4 15,7 9 5 13 7 NNW 1018,2 - 0,0
23.08.2019 23:00:00 23,6 14,6 9 5 12 7 NW 1017,7 - 0,0
23.08.2019 22:00:00 25,5 14,9 4 2 34 18 N 1017,9 - 0,0
23.08.2019 21:00:00 25,3 15,6 29 16 37 20 Z 1017,5 - 0,0
23.08.2019 20:00:00 24,6 17,1 29 16 38 20 ZZO 1017,6 - 0,0
23.08.2019 19:00:00 23,6 19,3 34 18 41 22 ZZO 1017,7 - 0,0
23.08.2019 18:00:00 24,3 17,5 32 17 36 19 ZZO 1018,0 - 0,0
23.08.2019 17:00:00 24,4 18,3 29 16 36 19 ZZO 1018,4 - 0,0
23.08.2019 16:00:00 25,2 17,1 28 15 33 18 ZZO 1018,6 - 0,0
23.08.2019 15:00:00 24,9 18,6 24 13 28 15 ZZO 1019,3 - 0,0
23.08.2019 14:00:00 24,9 17,6 22 12 24 13 ZO 1019,4 30 0,0
23.08.2019 13:00:00 26,5 16,1 12 6 21 11 OZO 1019,9 - 0,0
23.08.2019 12:00:00 25,9 14,0 8 4 12 7 O 1020,0 - 0,0
23.08.2019 11:00:00 25,6 12,8 4 2 9 5 N 1020,2 25 0,0
23.08.2019 10:00:00 25,0 13,9 7 4 12 7 NNW 1020,2 - 0,0
23.08.2019 09:00:00 24,7 11,6 11 6 21 11 NNW 1020,1 - 0,0
23.08.2019 08:00:00 21,5 14,6 17 9 25 13 NW 1020,1 - 0,0
23.08.2019 07:00:00 23,2 9,6 23 12 30 16 NW 1019,8 - 0,0
23.08.2019 06:00:00 23,0 9,0 25 14 31 17 NNW 1019,9 - 0,0
23.08.2019 05:00:00 21,4 11,1 28 15 32 18 NNW 1020,1 - 0,0
23.08.2019 04:00:00 21,3 13,7 22 12 32 17 NNW 1020,1 - 0,0
23.08.2019 03:00:00 24,4 13,3 25 13 35 19 NW 1019,9 - 0,0
23.08.2019 02:00:00 25,0 8,9 31 17 37 20 NW 1019,7 - 0,0
23.08.2019 01:00:00 25,5 8,9 29 16 38 21 WNW 1019,8 - 0,0
23.08.2019 00:00:00 25,7 9,5 30 16 43 23 WNW 1019,9 - 0,0
22.08.2019 23:00:00 25,9 9,3 33 18 41 22 WNW 1019,7 - 0,0
22.08.2019 22:00:00 26,1 9,4 28 15 40 22 NW 1019,8 - 0,0
22.08.2019 21:00:00 24,9 15,2 16 9 22 12 N 1019,5 - 0,0
22.08.2019 20:00:00 25,6 15,0 10 6 34 18 N 1018,7 - 0,0
22.08.2019 19:00:00 27,3 12,9 26 14 36 19 N 1018,3 - 0,0
22.08.2019 18:00:00 26,5 14,3 29 16 38 21 NNO 1018,7 - 0,0
22.08.2019 17:00:00 26,8 13,2 21 11 30 16 NNO 1019,0 - 0,0
22.08.2019 16:00:00 26,0 17,6 29 16 38 20 NNO 1019,2 - 0,0
22.08.2019 15:00:00 26,8 17,0 35 19 40 22 N 1019,3 - 0,0
22.08.2019 14:00:00 27,3 15,6 37 20 51 27 N 1019,4 30 0,0
22.08.2019 13:00:00 27,5 13,4 47 25 55 30 N 1019,3 - 0,0
22.08.2019 12:00:00 26,8 11,7 48 26 55 30 NNW 1019,4 - 0,0
22.08.2019 11:00:00 25,8 13,0 42 23 56 31 NNW 1019,8 30 0,0
22.08.2019 10:00:00 24,8 10,3 40 21 62 33 NW 1019,3 - 0,0
22.08.2019 09:00:00 23,6 10,3 41 22 69 37 NW 1019,4 - 0,0
22.08.2019 08:00:00 23,2 10,3 41 22 65 35 NW 1019,0 20 0,0
22.08.2019 07:00:00 22,7 11,1 36 20 57 31 NW 1018,7 - 0,0
22.08.2019 06:00:00 23,2 11,3 34 19 53 28 NW 1018,7 - 0,0
22.08.2019 05:00:00 23,5 11,2 34 18 50 27 NW 1019,0 20 0,0
22.08.2019 04:00:00 23,5 11,5 32 17 50 27 NW 1018,9 - 0,0
22.08.2019 03:00:00 23,8 10,8 28 15 47 25 NW 1019,2 - 0,0
22.08.2019 02:00:00 24,1 10,4 27 15 50 27 NW 1019,4 - 0,0
22.08.2019 01:00:00 24,2 10,5 34 18 61 33 NW 1019,2 - 0,0
22.08.2019 00:00:00 24,0 11,0 37 20 54 29 WNW 1019,2 - 0,0
21.08.2019 23:00:00 24,1 11,1 37 20 51 28 WNW 1019,2 - 0,0
21.08.2019 22:00:00 24,4 9,5 32 18 44 24 WNW 1019,1 - 0,0
21.08.2019 21:00:00 25,1 7,2 22 12 36 19 WNW 1018,5 - 0,0
21.08.2019 20:00:00 24,8 12,4 25 14 35 19 NNW 1017,7 20 0,0
21.08.2019 19:00:00 25,6 11,7 11 6 30 16 NNW 1017,8 - 0,0
21.08.2019 18:00:00 27,3 10,5 4 2 23 12 N 1018,0 - 0,0
21.08.2019 17:00:00 26,4 14,2 18 10 29 16 NO 1018,2 25 0,0
21.08.2019 16:00:00 26,6 17,1 26 14 35 19 NO 1018,3 - 0,0
21.08.2019 15:00:00 25,4 15,1 21 11 33 18 N 1018,9 - 0,0
21.08.2019 14:00:00 25,9 16,2 31 17 36 19 N 1018,8 25 0,0
21.08.2019 13:00:00 26,8 16,7 24 13 31 17 N 1019,5 - 0,0
21.08.2019 12:00:00 25,2 13,7 30 16 41 22 NNW 1019,7 - 0,0
21.08.2019 11:00:00 24,4 12,4 35 19 54 29 NW 1020,1 25 0,0
21.08.2019 10:00:00 23,0 11,4 39 21 61 33 NW 1019,9 - 0,0
21.08.2019 09:00:00 21,7 11,1 43 23 68 37 NW 1019,7 - 0,0
21.08.2019 08:00:00 20,8 11,7 43 23 71 38 NW 1020,0 25 0,0
21.08.2019 07:00:00 20,1 12,3 43 23 74 40 NW 1019,8 - 0,0
21.08.2019 06:00:00 20,2 12,7 45 24 74 40 NW 1019,7 - 0,0
21.08.2019 05:00:00 20,2 12,7 49 26 74 40 NW 1020,1 25 0,0
21.08.2019 04:00:00 20,2 12,9 52 28 79 43 WNW 1020,3 - 0,0
21.08.2019 03:00:00 20,4 13,1 43 23 74 40 NW 1020,7 - 0,0
21.08.2019 02:00:00 20,1 13,8 49 26 74 40 NW 1020,6 - 0,0
21.08.2019 01:00:00 20,0 14,1 48 26 74 40 NW 1021,1 - 0,0
21.08.2019 00:00:00 20,2 15,0 55 30 77 41 NW 1021,5 - 0,0
20.08.2019 23:00:00 20,6 14,7 54 29 72 39 NW 1021,2 - 0,0
20.08.2019 22:00:00 21,4 15,5 59 32 68 37 NW 1020,8 - 0,0
20.08.2019 21:00:00 22,0 14,9 55 30 74 40 NNW 1020,5 - 0,0
20.08.2019 20:00:00 22,7 15,3 58 31 74 40 NNW 1020,4 25 0,0
20.08.2019 19:00:00 22,8 14,4 55 30 72 39 NNW 1020,0 - 0,0
20.08.2019 18:00:00 22,2 14,3 50 27 71 38 NW 1020,4 - 0,0
20.08.2019 17:00:00 20,6 14,9 56 30 67 36 NW 1020,9 25 0,0
20.08.2019 16:00:00 20,9 14,5 45 25 69 38 NW 1021,2 - 0,0
20.08.2019 15:00:00 21,0 13,9 51 28 88 47 NW 1020,8 - 0,0
20.08.2019 14:00:00 21,9 14,3 68 37 86 47 NW 1020,4 25 0,0
20.08.2019 13:00:00 23,2 15,5 66 36 76 41 NNW 1019,6 - 0,0
20.08.2019 12:00:00 23,6 16,4 41 22 46 25 N 1019,9 - 0,0
20.08.2019 11:00:00 23,2 15,5 39 21 52 28 NNW 1019,5 30 0,0
20.08.2019 10:00:00 22,1 15,4 39 21 49 26 NNW 1019,0 - 0,0
20.08.2019 09:00:00 21,4 15,2 40 22 56 31 NNW 1018,5 - 0,0
20.08.2019 08:00:00 20,6 14,5 36 19 53 28 NW 1018,8 - 0,0
20.08.2019 07:00:00 20,0 14,1 33 18 51 27 NW 1018,2 - 0,0
20.08.2019 06:00:00 20,1 15,3 40 22 48 26 NW 1017,4 - 0,0
20.08.2019 05:00:00 20,3 14,6 41 22 62 33 NNW 1017,3 20 0,0
20.08.2019 04:00:00 21,0 13,4 39 21 69 38 NW 1017,3 - 0,0
20.08.2019 03:00:00 21,4 13,1 39 21 64 35 NW 1017,6 - 0,0
20.08.2019 02:00:00 21,8 12,9 37 20 61 33 NW 1018,0 - 0,0
20.08.2019 01:00:00 22,1 12,9 35 19 56 31 NW 1018,3 - 0,0
20.08.2019 00:00:00 22,3 12,5 36 20 55 30 WNW 1018,4 - 0,0
19.08.2019 23:00:00 22,3 12,3 35 19 61 33 WNW 1018,3 - 0,0
19.08.2019 22:00:00 22,6 12,8 36 19 60 33 NW 1018,3 - 0,0
19.08.2019 21:00:00 22,9 13,7 34 19 52 28 WNW 1017,6 - 0,0
19.08.2019 20:00:00 23,2 14,2 37 20 53 29 WNW 1017,4 25 0,0
19.08.2019 19:00:00 23,3 14,6 31 17 47 25 NW 1017,4 - 0,0
19.08.2019 18:00:00 23,8 15,3 33 18 46 25 NW 1017,2 - 0,0
19.08.2019 17:00:00 24,9 15,8 32 17 36 19 NW 1017,1 - 0,0
19.08.2019 16:00:00 24,8 18,5 24 13 32 17 N 1017,1 - 0,0
19.08.2019 15:00:00 25,0 17,7 31 17 41 22 NNW 1017,3 - 0,0
19.08.2019 14:00:00 24,3 16,0 36 19 46 25 NW 1017,1 25 0,0
19.08.2019 13:00:00 24,0 15,8 36 20 49 27 NW 1017,1 - 0,0
19.08.2019 12:00:00 23,4 16,0 45 24 56 30 NW 1016,9 - 0,0
19.08.2019 11:00:00 23,1 15,2 47 25 55 30 NW 1016,5 25 0,0
19.08.2019 10:00:00 22,6 15,7 43 23 72 39 NW 1016,2 - 0,0
19.08.2019 09:00:00 21,9 15,7 52 28 66 35 NW 1015,9 - 0,0
19.08.2019 08:00:00 20,9 15,0 45 24 64 35 NW 1015,9 - 0,0
19.08.2019 07:00:00 21,1 16,1 35 19 53 28 NW 1015,6 - 0,0
19.08.2019 06:00:00 21,6 17,2 31 17 50 27 NW 1015,3 - 0,0
19.08.2019 05:00:00 22,5 22,3 25 14 37 20 N 1015,0 - 0,0
19.08.2019 04:00:00 22,7 22,5 28 15 32 17 N 1015,3 - 0,0
19.08.2019 03:00:00 23,0 22,3 23 12 37 20 NW 1015,1 - 0,0
19.08.2019 02:00:00 23,0 22,8 32 17 41 22 NNW 1014,9 - 0,0
19.08.2019 01:00:00 23,4 22,6 33 18 41 22 NW 1014,7 - 0,0
19.08.2019 00:00:00 23,5 22,5 26 14 44 24 NW 1014,7 - 0,0
18.08.2019 23:00:00 23,2 22,9 9 5 17 9 N 1014,3 - 0,0
18.08.2019 22:00:00 23,4 23,1 8 4 16 9 N 1013,9 - 0,0
18.08.2019 21:00:00 23,3 23,1 3 2 15 8 ZZW 1012,8 - 0,0
18.08.2019 20:00:00 23,4 23,1 8 4 44 24 ZZO 1012,4 - 0,0
18.08.2019 19:00:00 24,0 23,1 14 7 44 24 ZZO 1012,0 - 0,0
18.08.2019 18:00:00 23,9 23,2 29 16 49 26 ZZO 1012,0 - 0,0
18.08.2019 17:00:00 24,3 23,1 32 17 51 27 ZZO 1011,8 - 0,0
18.08.2019 16:00:00 25,3 23,0 32 17 48 26 ZZO 1011,2 - 0,0
18.08.2019 15:00:00 25,9 22,8 29 16 55 30 ZZO 1011,3 - 0,0
18.08.2019 14:00:00 25,3 23,0 46 25 63 34 ZO 1010,4 - 0,0
18.08.2019 13:00:00 27,1 22,9 30 16 53 29 ZO 1010,6 - 0,0
18.08.2019 12:00:00 25,2 21,1 14 7 32 17 N 1010,9 - 0,0
18.08.2019 11:00:00 27,1 21,2 12 7 52 28 ZW 1011,0 15 0,0
18.08.2019 10:00:00 27,7 17,8 29 16 53 29 ZZW 1010,7 - 0,0
18.08.2019 09:00:00 25,8 17,7 37 20 61 33 Z 1010,6 - 0,0
18.08.2019 08:00:00 24,7 18,2 33 18 53 29 ZZW 1010,8 6 0,0
18.08.2019 07:00:00 23,6 19,3 34 18 60 32 ZZW 1010,7 - 0,0
18.08.2019 06:00:00 23,1 20,1 33 18 48 26 ZZW 1011,0 - 0,0
18.08.2019 05:00:00 21,8 20,4 26 14 35 19 Z 1011,6 0,9 0,0
18.08.2019 04:00:00 21,8 21,8 5 3 6 4 OZO 1012,5 - 0,0
18.08.2019 03:00:00 21,6 21,3 5 3 11 6 NW 1013,0 - 0,0
18.08.2019 02:00:00 21,6 21,4 5 3 8 4 N 1013,4 - 0,0
18.08.2019 01:00:00 21,8 21,6 4 2 6 3 Z 1013,6 - 0,0
18.08.2019 00:00:00 21,9 21,6 4 2 13 7 NW 1013,8 - 0,0

tt = temperatuur
td = dauwpunt
ff = windsnelheid
fx = windstoten
dd = windrichting
ppp = luchtdruk
vv = zicht
rr = neerslag

Weerstations in de omgeving